This is the latest recevied weather packets stored in our database for station/object KD5UMO-1. If no packets are shown the sender has not sent any weather packets the latest 10 day(s).
| Time | Temp. | Humidity | Pressure | Rain* | Wind** | Luminosity | Snow |
|---|---|---|---|---|---|---|---|
| 1777986054 | 22.22° C | 83% | 1004.7 hPa | 0 mm | - | 72 W/m² | - |
| 1777985750 | 22.22° C | 83% | 1004.6 hPa | 0 mm | - | 66 W/m² | - |
| 1777985447 | 22.22° C | 83% | 1004.7 hPa | 0 mm | - | 68 W/m² | - |
| 1777985144 | 22.22° C | 83% | 1004.7 hPa | 0 mm | - | 62 W/m² | - |
| 1777984840 | 22.22° C | 83% | 1004.6 hPa | 0 mm | - | 43 W/m² | - |
| 1777984537 | 22.22° C | 84% | 1004.5 hPa | 0 mm | - | 32 W/m² | - |
| 1777984233 | 22.22° C | 83% | 1004.2 hPa | 0 mm | - | 37 W/m² | - |
| 1777983930 | 22.22° C | 83% | 1004.3 hPa | 0 mm | - | 28 W/m² | - |
| 1777983627 | 22.22° C | 83% | 1004.3 hPa | 0 mm | - | 26 W/m² | - |
| 1777983323 | 22.22° C | 83% | 1004.4 hPa | 0 mm | - | 17 W/m² | - |
| 1777983020 | 22.22° C | 83% | 1004.3 hPa | 0 mm | - | 19 W/m² | - |
| 1777982716 | 22.78° C | 82% | 1004.1 hPa | 0 mm | - | 13 W/m² | - |
| 1777982412 | 22.22° C | 83% | 1004.1 hPa | 0 mm | - | 9 W/m² | - |
| 1777982107 | 22.78° C | 82% | 1004.2 hPa | 0 mm | - | 7 W/m² | - |
| 1777981805 | 22.22° C | 82% | 1003.9 hPa | 0 mm | - | 6 W/m² | - |
| 1777981502 | 22.22° C | 83% | 1003.8 hPa | 0 mm | - | 2 W/m² | - |
| 1777981198 | 22.22° C | 83% | 1003.8 hPa | 0 mm | - | 2 W/m² | - |
| 1777980895 | 22.22° C | 82% | 1003.9 hPa | 0 mm | - | 1 W/m² | - |
| 1777980590 | 22.22° C | 82% | 1004 hPa | 0 mm | - | 0 W/m² | - |
| 1777980287 | 22.22° C | 82% | 1004 hPa | 0 mm | - | 0 W/m² | - |
| 1777979984 | 22.22° C | 82% | 1003.6 hPa | 0 mm | - | 0 W/m² | - |
| 1777979678 | 22.22° C | 82% | 1003.9 hPa | 0 mm | - | 0 W/m² | - |
| 1777979375 | 22.22° C | 82% | 1004.2 hPa | 0 mm | - | 0 W/m² | - |
| 1777979072 | 22.22° C | 83% | 1004.1 hPa | 0 mm | - | 0 W/m² | - |
| 1777978769 | 22.22° C | 83% | 1004.1 hPa | 0 mm | - | 0 W/m² | - |
* Rain latest hour (hover to see other rain measurements)
** Current wind speed in m/s (hover to see current wind gust speed)